Date String (YYYY-MM-DD hh:mm:ss) UTC,Instrument flags,absolute air pressure of the measurement (hPa),sample flow rate (lpm),inlet stack bypass flow (lpm),air temperature of the measurement (°C),ambient temperature measured by the external sensor (°C),aerosol sample conditioner tube jacket temperature (°C),OPC LED temperature (°C),internal box temperature (°C),relative humidity of the measurement (%),span deviation,mass concentration of particles derived from Lorenz-Mie calculation of OPC scattering (μg/m³),mass concentration of particles derived from Lorenz-Mie calculation of OPC scattering (μg/m³),mass concentration of particles derived from Lorenz-Mie calculation of OPC scattering (μg/m³)
DateTimeUTC,F1_M11,P_M11,Q1_M11,Q2_M11,T1_M11,T2_M11,T3_M11,T4_M11,T5_M11,U1_M11,ZSPAN_M11,X2_M11,X0_M11,X1_M11
2023-08-31 17:00:00,SystemResetWarning,0829.9,5.00,000.00,025.6,024.0,000.0,033.7,027.3,29.3,0000.0,0004.18,0010.88,0003.48
2023-08-31 17:01:00,SystemResetWarning,0830.0,4.99,000.00,025.6,024.3,000.0,033.8,027.4,28.8,0000.0,0004.29,0011.43,0003.54
2023-08-31 17:02:00,SystemResetWarning,0829.9,4.98,000.00,025.6,023.5,000.0,033.7,027.1,29.6,0000.0,0004.38,0011.13,0003.59
2023-08-31 17:03:00,SystemResetWarning,0829.9,5.01,000.00,025.5,022.6,000.0,033.7,026.8,28.1,0000.0,0004.43,0011.00,0003.61
2023-08-31 17:04:00,SystemResetWarning,0829.9,5.00,000.00,025.5,022.8,000.0,033.6,026.9,28.8,0000.0,0004.48,0011.16,0003.64
2023-08-31 17:05:00,SystemResetWarning,0829.9,4.99,000.00,025.5,023.1,000.0,033.7,026.9,29.0,0000.0,0004.52,0011.70,0003.66
2023-08-31 17:06:00,SystemResetWarning,0830.0,5.01,000.00,025.5,023.5,000.0,033.7,027.1,28.4,0000.0,0004.56,0012.14,0003.68
2023-08-31 17:07:00,SystemResetWarning,0830.0,5.01,000.00,025.5,023.9,000.0,033.7,027.2,28.6,0000.0,0004.56,0012.25,0003.70
2023-08-31 17:08:00,SystemResetWarning,0830.0,4.99,000.00,025.6,024.1,000.0,033.7,027.3,26.1,0000.0,0004.58,0011.60,0003.72
2023-08-31 17:09:00,SystemResetWarning,0829.9,4.99,000.00,025.6,023.3,000.0,033.7,027.0,25.4,0000.0,0004.57,0010.86,0003.73
2023-08-31 17:10:00,SystemResetWarning,0829.9,5.01,000.00,025.5,022.4,000.0,033.6,026.8,25.7,0000.0,0004.57,0010.75,0003.73
2023-08-31 17:11:00,SystemResetWarning,0829.9,5.01,000.00,025.4,022.7,000.0,033.6,026.9,26.5,0000.0,0004.57,0010.86,0003.75
2023-08-31 17:12:00,SystemResetWarning,0829.9,5.00,000.00,025.4,023.0,000.0,033.6,026.9,26.5,0000.0,0004.54,0010.30,0003.75
2023-08-31 17:13:00,SystemResetWarning,0829.9,5.00,000.00,025.4,023.4,000.0,033.7,027.0,27.1,0000.0,0004.51,0009.97,0003.75
2023-08-31 17:14:00,SystemResetWarning,0829.9,5.00,000.00,025.5,023.8,000.0,033.7,027.2,26.9,0000.0,0004.51,0010.08,0003.76
2023-08-31 17:15:00,SystemResetWarning,0829.9,4.99,000.00,025.5,024.2,000.0,033.7,027.3,26.9,0000.0,0004.52,0010.16,0003.78
2023-08-31 17:16:00,SystemResetWarning,0829.9,4.99,000.00,025.6,023.9,000.0,033.7,027.2,27.4,0000.6,0004.52,0009.84,0003.78
2023-08-31 17:17:00,SystemResetWarning,0829.8,5.00,000.00,025.5,022.7,000.0,033.7,026.8,27.7,0003.8,0004.52,0009.73,0003.79
2023-08-31 17:18:00,SystemResetWarning,0829.9,5.01,000.00,025.4,022.6,000.0,033.6,026.8,27.1,0004.0,0004.50,0009.35,0003.80
2023-08-31 17:19:00,SystemResetWarning,0829.8,5.02,000.00,025.4,023.0,000.0,033.6,026.9,25.4,0003.3,0004.50,0009.26,0003.80
2023-08-31 17:20:00,SystemResetWarning,0829.8,5.00,000.00,025.4,023.3,000.0,033.7,027.0,25.8,0001.8,0004.53,0009.31,0003.83
2023-08-31 17:21:00,SystemResetWarning,0829.9,5.00,000.00,025.5,023.7,000.0,033.7,027.2,26.8,0003.4,0004.58,0009.73,0003.87
2023-08-31 17:22:00,SystemResetWarning,0829.9,5.00,000.00,025.5,024.1,000.0,033.7,027.3,26.3,0003.6,0004.58,0010.33,0003.89
2023-08-31 17:23:00,SystemResetWarning,0829.9,4.99,000.00,025.6,023.7,000.0,033.7,027.2,25.8,0003.1,0004.62,0010.43,0003.91
2023-08-31 17:24:00,SystemResetWarning,0829.9,5.00,000.00,025.5,022.6,000.0,033.6,026.8,24.8,0002.0,0004.64,0010.61,0003.92
2023-08-31 17:25:00,SystemResetWarning,0829.9,5.02,000.00,025.4,022.6,000.0,033.6,026.8,23.8,0001.3,0004.69,0010.82,0003.93
2023-08-31 17:26:00,SystemResetWarning,0829.9,4.99,000.00,025.4,022.9,000.0,033.6,026.8,23.6,0000.3,0004.70,0010.79,0003.94
2023-08-31 17:27:00,SystemResetWarning,0829.9,5.00,000.00,025.4,023.3,000.0,033.6,027.0,23.1,0000.0,0004.69,0011.36,0003.95
2023-08-31 17:28:00,SystemResetWarning,0829.9,5.00,000.00,025.5,023.7,000.0,033.7,027.1,22.8,0000.2,0004.70,0011.26,0003.97
2023-08-31 17:29:00,SystemResetWarning,0829.9,5.01,000.00,025.5,024.1,000.0,033.7,027.3,23.1,-000.3,0004.77,0011.30,0003.98
2023-08-31 17:30:00,SystemResetWarning,0829.9,4.99,000.00,025.6,024.2,000.0,033.7,027.3,23.0,0000.5,0004.80,0011.31,0004.01
2023-08-31 17:31:00,SystemResetWarning,0829.9,4.99,000.00,025.5,023.2,000.0,033.7,027.0,22.8,0000.7,0004.80,0011.54,0004.00
2023-08-31 17:32:00,SystemResetWarning,0829.8,5.00,000.00,025.5,022.5,000.0,033.6,026.8,23.7,0000.7,0004.81,0012.17,0004.00
2023-08-31 17:33:00,SystemResetWarning,0829.8,5.02,000.00,025.4,022.9,000.0,033.6,027.0,24.1,0000.7,0004.86,0012.57,0004.00
2023-08-31 17:34:00,SystemResetWarning,0829.8,5.01,000.00,025.4,023.2,000.0,033.6,027.0,23.0,0001.0,0004.86,0012.74,0004.01
2023-08-31 17:35:00,SystemResetWarning,0829.8,4.99,000.00,025.5,023.6,000.0,033.7,027.1,22.3,0001.3,0004.88,0012.80,0004.03
2023-08-31 17:36:00,SystemResetWarning,0829.8,5.00,000.00,025.5,024.0,000.0,033.7,027.3,22.1,0001.5,0004.92,0012.91,0004.05
2023-08-31 17:37:00,SystemResetWarning,0829.8,5.00,000.00,025.6,024.1,000.0,033.7,027.3,23.0,0001.8,0004.93,0013.28,0004.06
2023-08-31 17:38:00,SystemResetWarning,0829.8,4.98,000.00,025.5,023.0,000.0,033.7,026.8,21.3,0001.7,0004.92,0012.71,0004.08
2023-08-31 17:39:00,SystemResetWarning,0829.7,5.01,000.00,025.4,022.5,000.0,033.6,026.7,21.3,0001.4,0004.94,0014.01,0004.10
2023-08-31 17:40:00,SystemResetWarning,0829.7,5.01,000.00,025.4,022.9,000.0,033.6,026.9,21.0,0002.1,0004.96,0014.33,0004.11
2023-08-31 17:41:00,SystemResetWarning,0829.7,4.99,000.00,025.4,023.2,000.0,033.6,026.9,21.0,0002.0,0004.91,0014.45,0004.11
2023-08-31 17:42:00,SystemResetWarning,0829.8,5.00,000.00,025.5,023.6,000.0,033.7,027.1,21.6,0001.2,0004.93,0014.78,0004.12
2023-08-31 17:43:00,SystemResetWarning,0829.7,5.00,000.00,025.5,024.0,000.0,033.7,027.3,20.5,0000.5,0004.97,0014.58,0004.14
2023-08-31 17:44:00,SystemResetWarning,0829.7,4.99,000.00,025.6,024.1,000.0,033.7,027.3,19.4,0000.0,0004.99,0013.36,0004.14
2023-08-31 17:45:00,SystemResetWarning,0829.7,4.99,000.00,025.5,023.0,000.0,033.6,026.9,20.1,0000.0,0004.99,0013.23,0004.14
2023-08-31 17:46:00,SystemResetWarning,0829.7,5.01,000.00,025.4,022.6,000.0,033.6,026.9,20.6,0000.0,0004.99,0014.38,0004.16
2023-08-31 17:47:00,SystemResetWarning,0829.7,5.02,000.00,025.4,022.9,000.0,033.6,027.0,20.5,0000.0,0004.94,0014.44,0004.15
2023-08-31 17:48:00,SystemResetWarning,0829.7,5.00,000.00,025.4,023.3,000.0,033.6,027.0,19.4,0000.0,0004.93,0014.41,0004.14
2023-08-31 17:49:00,SystemResetWarning,0829.7,4.99,000.00,025.5,023.7,000.0,033.6,027.2,19.8,0000.0,0004.97,0015.17,0004.15
2023-08-31 17:50:00,SystemResetWarning,0829.7,5.00,000.00,025.5,024.1,000.0,033.7,027.3,19.4,0000.0,0005.00,0014.99,0004.15
2023-08-31 17:51:00,SystemResetWarning,0829.7,4.99,000.00,025.6,024.0,000.0,033.7,027.3,20.1,0000.0,0005.06,0014.82,0004.15
2023-08-31 17:52:00,SystemResetWarning,0829.7,4.99,000.00,025.5,023.0,000.0,033.6,026.9,20.7,0000.0,0005.11,0014.82,0004.17
2023-08-31 17:53:00,SystemResetWarning,0829.7,5.01,000.00,025.4,022.6,000.0,033.6,026.8,21.5,0000.6,0005.13,0014.42,0004.18
2023-08-31 17:54:00,SystemResetWarning,0829.7,5.00,000.00,025.4,023.0,000.0,033.6,026.9,21.6,0000.1,0005.13,0014.72,0004.16
2023-08-31 17:55:00,SystemResetWarning,0829.7,5.01,000.00,025.4,023.3,000.0,033.6,027.0,21.5,0000.8,0005.09,0014.83,0004.14
2023-08-31 17:56:00,SystemResetWarning,0829.7,4.99,000.00,025.5,023.7,000.0,033.7,027.2,20.3,0000.4,0005.06,0014.91,0004.13
2023-08-31 17:57:00,SystemResetWarning,0829.7,4.99,000.00,025.5,024.1,000.0,033.7,027.3,20.4,0000.4,0005.09,0013.68,0004.13
2023-08-31 17:58:00,SystemResetWarning,0829.7,5.00,000.00,025.6,024.0,000.0,033.7,027.2,21.2,0000.0,0005.10,0013.63,0004.12
2023-08-31 17:59:00,SystemResetWarning,0829.7,5.00,000.00,025.5,022.8,000.0,033.6,026.8,20.1,0000.3,0005.06,0013.51,0004.09
